[[{"header":{"parameterUnit":"m.s-1","parameterCategory":2,"la1":30.2991,"la2":30.254,"lo1":-89.0895,"lo2":-89.0444,"dy":0.0017,"dx":0.0017,"nx":28,"ny":28,"refTime":"2024-06-11T21:00:00:Z","depth":"0","parameterNumber":2,"parameterNumberName":"U-component_of_CURRENTS"},"data":[0,0,0,0,0,0,0,0,0,0,0,0,0,0,0,0,0,0,0,0,0,0,0,0,0,0,0,0,0,0,0,0,0,0,0,0,0,0,0,0,0,0,0,0,0,0,0,0,0,0,0,0,0,0,0,0,0,0,-0.3488,-0.3489,0,-0.3579,-0.3579,-0.3579,-0.3598,-0.3598,-0.3599,-0.3599,-0.3532,-0.353,-0.3528,0,0,0,0,0,0,0,0,0,0,0,0,0,-0.3293,-0.3296,-0.3488,-0.349,-0.3491,-0.3578,-0.3579,-0.3579,-0.3598,-0.3598,-0.3599,-0.3599,-0.3532,-0.353,-0.3528,0,0,0,0,0,0,0,0,0,0,0,0,0,-0.3372,-0.3297,-0.3487,-0.3518,-0.3522,-0.3578,-0.3579,-0.3579,-0.3598,-0.3598,-0.3599,-0.3599,-0.3533,-0.353,-0.3527,-0.3507,0,0,-0.3519,-0.3518,0,0,0,0,0,0,0,0,-0.3368,-0.3378,-0.3511,-0.3516,-0.3521,-0.3585,-0.3486,-0.355,-0.3598,-0.356,-0.3599,-0.3599,-0.354,-0.3537,-0.3544,-0.3504,-0.3501,-0.3519,-0.3517,-0.3516,-0.3515,0,0,0,0,0,0,0,-0.3362,-0.3375,-0.3515,-0.3513,-0.3519,-0.3514,-0.3525,-0.3498,-0.3539,-0.3564,-0.3567,-0.3591,-0.354,-0.3547,-0.3542,-0.35,-0.3519,-0.3516,-0.3514,-0.3513,-0.3483,-0.3484,0,0,0,0,0,0,-0.3371,-0.337,-0.3512,-0.3519,-0.3452,-0.3519,-0.353,-0.3557,-0.3543,-0.3545,-0.3591,-0.3592,-0.3551,-0.3545,-0.354,-0.3573,-0.3516,-0.3513,-0.3511,-0.3482,-0.3483,-0.3484,0,0,0,0,0,0,-0.3366,-0.3382,-0.3509,-0.3452,-0.3469,-0.3523,-0.3552,-0.3559,-0.3572,-0.3567,-0.3563,-0.3598,-0.3551,-0.3543,-0.353,-0.3568,-0.3512,-0.3509,-0.3481,-0.3483,-0.3484,-0.3602,0,0,0,0,0,0,-0.336,-0.338,-0.3386,-0.3453,-0.3473,-0.3565,-0.3553,-0.3561,-0.359,-0.3591,-0.3571,-0.3566,-0.3551,-0.3534,-0.3527,-0.3563,-0.3507,-0.348,-0.3482,-0.3483,-0.3597,-0.3607,-0.3616,0,0,0,0,0,-0.3353,-0.3383,-0.3386,-0.3403,-0.3485,-0.3568,-0.3577,-0.3608,-0.359,-0.3613,-0.359,-0.3566,-0.354,-0.3533,-0.3524,-0.356,-0.3479,-0.3481,-0.3483,-0.3593,-0.3605,-0.3616,0,0,0,0,0,0,-0.3299,-0.3391,-0.3395,-0.3448,-0.3508,-0.3574,-0.3604,-0.3608,-0.3609,-0.3602,-0.3571,-0.3564,-0.3569,-0.3538,-0.3531,-0.3554,-0.3508,-0.3508,-0.3594,-0.3605,-0.3615,-0.3623,-0.3505,0,0,0,0,0,-0.329,-0.333,-0.3417,-0.345,-0.3494,-0.3538,-0.3567,-0.3593,-0.3615,-0.3616,-0.3598,-0.3576,-0.3569,-0.3566,-0.3549,-0.3555,-0.3557,-0.3572,-0.3582,-0.3591,-0.3591,-0.3622,-0.3635,-0.3491,-0.3491,-0.3491,0,0,-0.327,-0.3328,-0.3345,-0.3439,-0.3488,-0.3549,-0.3555,-0.3621,-0.3653,-0.3604,-0.362,-0.3601,-0.3574,-0.3594,-0.3594,-0.3576,-0.3641,-0.3593,-0.3601,-0.3596,-0.3625,-0.364,-0.3653,-0.3492,-0.3492,-0.3492,0,0,-0.327,-0.3318,-0.3358,-0.3425,-0.3517,-0.3556,-0.3576,-0.3647,-0.367,-0.3688,-0.3664,-0.3673,-0.3645,-0.3659,-0.3655,-0.3699,-0.3685,-0.3686,-0.3751,-0.3783,-0.3795,-0.3806,-0.3872,-0.3888,-0.3699,-0.37,-0.37,0,-0.3237,-0.3305,-0.3379,-0.345,-0.3509,-0.3559,-0.3624,-0.3659,-0.37,-0.3739,-0.3705,-0.372,-0.3685,-0.374,-0.3747,-0.3725,-0.3741,-0.3717,-0.3799,-0.3809,-0.3818,-0.3882,-0.3898,-0.3706,-0.3705,-0.3704,-0.3704,0,-0.327,-0.3334,-0.3378,-0.3474,-0.3547,-0.3615,-0.3703,-0.375,-0.3767,-0.3805,-0.3862,-0.3834,-0.3849,-0.3844,-0.3797,-0.3858,-0.3851,-0.3806,-0.3778,-0.3841,-0.3904,-0.3919,-0.3714,-0.3712,-0.371,-0.3709,0,0,-0.3158,-0.3359,-0.3365,-0.3452,-0.3573,-0.3654,-0.3729,-0.3839,-0.3909,-0.3934,-0.4016,-0.4002,-0.4,-0.3992,-0.3961,-0.3975,-0.4053,-0.391,-0.3909,-0.3991,-0.4151,-0.3948,-0.3945,-0.4018,-0.402,-0.4022,-0.4186,0,-0.3151,-0.3296,-0.3388,-0.3519,-0.3618,-0.3726,-0.3804,-0.391,-0.3974,-0.406,-0.4087,-0.4127,-0.4057,-0.4064,-0.4075,-0.4041,-0.4088,-0.4014,-0.4062,-0.4065,-0.3888,-0.3952,-0.3536,-0.3627,-0.42,-0.4203,-0.4204,0,-0.3118,-0.3249,-0.3374,-0.361,-0.3664,-0.3732,-0.3916,-0.3994,-0.4131,-0.4185,-0.4253,-0.4263,-0.4302,-0.4212,-0.4253,-0.4205,-0.4185,-0.4167,-0.4173,-0.3942,-0.3886,-0.3644,-0.3631,-0.3582,-0.4226,-0.4225,-0.4223,0,-0.3005,-0.323,-0.3338,-0.3411,-0.3661,-0.3745,-0.3859,-0.4019,-0.4105,-0.4249,-0.4308,-0.4389,-0.4399,-0.4403,-0.4352,-0.4306,-0.4391,-0.4335,-0.417,-0.4159,-0.3788,-0.3738,-0.3729,-0.4383,-0.4383,-0.4382,-0.4382,0,-0.2945,-0.3033,-0.3307,-0.3374,-0.354,-0.372,-0.3861,-0.3994,-0.4146,-0.4228,-0.4342,-0.4387,-0.4429,-0.4473,-0.4433,-0.4342,-0.4472,-0.4191,-0.4175,-0.3819,-0.3772,-0.3694,-0.375,-0.4389,-0.4387,-0.4386,-0.4385,0,-0.2758,-0.2927,-0.309,-0.3384,-0.3482,-0.3586,-0.3842,-0.3927,-0.4098,-0.4198,-0.4236,-0.4393,-0.4407,-0.4471,-0.4489,-0.4408,-0.4254,-0.4323,-0.3917,-0.3845,-0.3546,-0.3623,-0.3632,-0.3554,-0.4148,-0.4144,-0.414,0,-0.2662,-0.2722,-0.3049,-0.3138,-0.3259,-0.3457,-0.3568,-0.3839,-0.3921,-0.4158,-0.4173,-0.4281,-0.4225,-0.4248,-0.4101,-0.4041,-0.4109,-0.3736,-0.3535,-0.3478,-0.3558,-0.3631,-0.3573,-0.3141,-0.313,-0.3121,-0.3113,0,-0.2477,-0.2578,-0.2716,-0.2908,-0.3059,-0.3232,-0.342,-0.3497,-0.376,-0.3819,-0.385,-0.383,-0.3827,-0.3519,-0.3515,-0.3452,-0.3538,-0.3535,-0.3562,-0.2832,-0.2825,-0.2755,-0.3162,-0.3029,-0.3038,-0.3044,-0.3048,-0.3052,-0.2296,-0.2329,-0.2488,-0.2642,-0.279,-0.2884,-0.291,-0.3079,-0.3125,-0.3121,-0.3316,-0.313,-0.303,-0.2834,-0.2828,-0.2627,-0.2883,-0.2512,-0.2646,-0.2758,-0.2541,-0.2779,-0.2558,-0.2563,-0.2568,-0.2572,-0.2576,0,-0.2085,-0.212,-0.2215,-0.2356,-0.2348,-0.2553,-0.2694,-0.2634,-0.2535,-0.2569,-0.245,-0.2187,-0.1929,-0.1994,-0.1819,-0.1743,-0.1748,-0.1829,-0.1819,-0.1832,-0.2056,-0.1856,-0.1361,-0.1361,-0.1361,-0.1361,-0.1361,-0.1361,-0.1974,-0.1949,-0.1992,-0.1876,-0.1928,-0.1847,-0.1853,-0.18,-0.1777,-0.153,-0.1381,-0.1346,-0.1504,-0.1525,-0.1415,-0.1361,-0.1454,-0.1335,-0.1655,-0.1759,-0.1833,-0.1904,-0.1725,-0.1211,-0.1211,-0.1177,-0.1177,-0.1177]},{"header":{"parameterUnit":"m.s-1","parameterCategory":2,"la1":30.2991,"la2":30.254,"lo1":-89.0895,"lo2":-89.0444,"dy":0.0017,"dx":0.0017,"nx":28,"ny":28,"refTime":"2024-06-11T21:00:00:Z","depth":"0","parameterNumber":3,"parameterNumberName":"V-component_of_CURRENTS"},"data":[0,0,0,0,0,0,0,0,0,0,0,0,0,0,0,0,0,0,0,0,0,0,0,0,0,0,0,0,0,0,0,0,0,0,0,0,0,0,0,0,0,0,0,0,0,0,0,0,0,0,0,0,0,0,0,0,0,0,-0.0565,-0.0564,0,-0.0473,-0.0472,-0.0471,-0.0401,-0.0401,-0.0401,-0.04,-0.0237,-0.0233,-0.0229,0,0,0,0,0,0,0,0,0,0,0,0,0,-0.0594,-0.0594,-0.0565,-0.0564,-0.0563,-0.0473,-0.0472,-0.047,-0.0401,-0.0401,-0.0401,-0.04,-0.0238,-0.0234,-0.0229,0,0,0,0,0,0,0,0,0,0,0,0,0,-0.0546,-0.0594,-0.0565,-0.0521,-0.0516,-0.0474,-0.0472,-0.047,-0.0401,-0.0401,-0.04,-0.04,-0.024,-0.0234,-0.0228,-0.0199,0,0,-0.0209,-0.0207,0,0,0,0,0,0,0,0,-0.0549,-0.0545,-0.0528,-0.0524,-0.0519,-0.0451,-0.0422,-0.0377,-0.0401,-0.0441,-0.04,-0.04,-0.0305,-0.0293,-0.0273,-0.0192,-0.0185,-0.0209,-0.0205,-0.0203,-0.0201,0,0,0,0,0,0,0,-0.0553,-0.0548,-0.0525,-0.0527,-0.0522,-0.0476,-0.0469,-0.0413,-0.0372,-0.0438,-0.0433,-0.0429,-0.0301,-0.0279,-0.0268,-0.0182,-0.0209,-0.0204,-0.02,-0.0197,-0.0056,-0.0055,0,0,0,0,0,0,-0.0577,-0.0552,-0.0528,-0.0523,-0.0537,-0.0477,-0.0469,-0.047,-0.0374,-0.0361,-0.043,-0.0426,-0.029,-0.0276,-0.0262,-0.0215,-0.0203,-0.0197,-0.0193,-0.0056,-0.0055,-0.0055,0,0,0,0,0,0,-0.0578,-0.0576,-0.0532,-0.0537,-0.0529,-0.0478,-0.0479,-0.0469,-0.045,-0.037,-0.0354,-0.0423,-0.0289,-0.0271,-0.0215,-0.0208,-0.0194,-0.0189,-0.0056,-0.0056,-0.0055,-0.0124,0,0,0,0,0,0,-0.0579,-0.0577,-0.0587,-0.054,-0.053,-0.0511,-0.048,-0.0468,-0.045,-0.0444,-0.0358,-0.0343,-0.0287,-0.0224,-0.0209,-0.0199,-0.0184,-0.0056,-0.0056,-0.0055,-0.0122,-0.0126,-0.013,0,0,0,0,0,-0.058,-0.0597,-0.0588,-0.0585,-0.0546,-0.0512,-0.0502,-0.0461,-0.045,-0.0442,-0.0386,-0.0345,-0.0212,-0.0219,-0.0201,-0.019,-0.0056,-0.0056,-0.0055,-0.012,-0.0125,-0.013,0,0,0,0,0,0,-0.061,-0.059,-0.058,-0.0588,-0.0556,-0.0502,-0.0499,-0.047,-0.0421,-0.0416,-0.0342,-0.0322,-0.0266,-0.0223,-0.0234,-0.0149,-0.0128,-0.0124,-0.0183,-0.0187,-0.0191,-0.0226,-0.0179,0,0,0,0,0,-0.0625,-0.0635,-0.0599,-0.0606,-0.0599,-0.0552,-0.0536,-0.0504,-0.0456,-0.0435,-0.037,-0.0307,-0.025,-0.0218,-0.0156,-0.0114,-0.0101,-0.0095,-0.0099,-0.0103,-0.0118,-0.0113,-0.0119,-0.0055,-0.0055,-0.0055,0,0,-0.0639,-0.063,-0.0635,-0.0613,-0.0591,-0.0567,-0.054,-0.052,-0.0492,-0.0424,-0.0369,-0.0314,-0.0242,-0.0188,-0.016,-0.0153,-0.0111,-0.0103,-0.0106,-0.012,-0.0113,-0.012,-0.0126,-0.0054,-0.0054,-0.0054,0,0,-0.0663,-0.0667,-0.0677,-0.0652,-0.0624,-0.059,-0.0589,-0.0534,-0.0508,-0.0451,-0.0398,-0.0352,-0.0251,-0.0207,-0.0172,-0.0165,-0.0131,-0.0138,-0.0187,-0.0181,-0.0187,-0.0192,-0.0178,-0.0181,-0.0144,-0.0144,-0.0144,0,-0.068,-0.0689,-0.0672,-0.0663,-0.0654,-0.0604,-0.06,-0.0557,-0.0483,-0.0484,-0.044,-0.0337,-0.0262,-0.0231,-0.0213,-0.0174,-0.0168,-0.0175,-0.0189,-0.0194,-0.0198,-0.0183,-0.0186,-0.0147,-0.0147,-0.0147,-0.0146,0,-0.07,-0.0703,-0.0709,-0.0685,-0.0666,-0.0658,-0.0605,-0.0583,-0.0546,-0.0511,-0.0474,-0.0381,-0.0334,-0.0291,-0.0238,-0.0233,-0.0217,-0.0195,-0.0185,-0.021,-0.019,-0.0192,-0.0152,-0.0151,-0.015,-0.0149,0,0,-0.075,-0.0731,-0.0732,-0.075,-0.0685,-0.0691,-0.0647,-0.0631,-0.0648,-0.0559,-0.0577,-0.0459,-0.0437,-0.0397,-0.0334,-0.0312,-0.0307,-0.0268,-0.0266,-0.0269,-0.0298,-0.0123,-0.0108,-0.0297,-0.0298,-0.0299,-0.0271,0,-0.0776,-0.0801,-0.0761,-0.0778,-0.0798,-0.0745,-0.0722,-0.0697,-0.0663,-0.0657,-0.0591,-0.0561,-0.0469,-0.0454,-0.0418,-0.0341,-0.0317,-0.0317,-0.0262,-0.026,-0.0114,-0.0106,-0.0023,0.0023,-0.0273,-0.0273,-0.0273,0,-0.0802,-0.083,-0.0859,-0.0882,-0.0886,-0.0868,-0.0889,-0.0856,-0.0823,-0.0799,-0.0767,-0.0712,-0.0658,-0.0574,-0.0479,-0.0488,-0.0399,-0.0333,-0.0331,-0.0148,-0.0088,0.0,0.0031,0.0195,-0.0276,-0.0276,-0.0276,0,-0.0892,-0.0902,-0.0951,-0.0948,-0.0941,-0.0956,-0.0945,-0.0915,-0.0931,-0.0895,-0.0908,-0.0839,-0.081,-0.0705,-0.0525,-0.0522,-0.0414,-0.0399,-0.0164,-0.0152,-0.0058,-0.0033,0.0127,-0.034,-0.034,-0.034,-0.034,0,-0.0942,-0.0982,-0.1007,-0.1037,-0.1118,-0.1059,-0.1124,-0.1095,-0.1073,-0.1112,-0.0996,-0.099,-0.0844,-0.0747,-0.0586,-0.0359,-0.0461,-0.0169,-0.0129,-0.0073,-0.0051,0.0117,0.0169,-0.0339,-0.0339,-0.0339,-0.0339,0,-0.1005,-0.1013,-0.1095,-0.1138,-0.1159,-0.1215,-0.1243,-0.129,-0.123,-0.1271,-0.1264,-0.1141,-0.0968,-0.0784,-0.06,-0.0429,-0.0103,-0.0127,-0.0051,0.0001,0.0401,0.0445,0.0623,0.0732,0.0112,0.0117,0.0121,0,-0.1031,-0.1078,-0.1194,-0.1264,-0.128,-0.1353,-0.1405,-0.1377,-0.1409,-0.1347,-0.1372,-0.1212,-0.1026,-0.0653,-0.0341,-0.0021,0.0079,0.0222,0.0269,0.0454,0.0528,0.0536,0.0612,0.0348,0.0353,0.0358,0.0361,0,-0.1094,-0.1138,-0.1212,-0.136,-0.1449,-0.1546,-0.1598,-0.1642,-0.1599,-0.1556,-0.1409,-0.1232,-0.084,-0.0382,0.0039,0.0216,0.0378,0.0328,0.0473,0.0708,0.0764,0.0878,0.0297,0.0401,0.0397,0.0394,0.0392,0.039,-0.1139,-0.1215,-0.1317,-0.1443,-0.155,-0.1644,-0.1677,-0.1687,-0.1656,-0.146,-0.1363,-0.0937,-0.0421,0.0246,0.0439,0.0852,0.0748,0.0964,0.099,0.0972,0.1132,0.0676,0.087,0.0869,0.0868,0.0867,0.0866,0,-0.1198,-0.1264,-0.139,-0.1521,-0.1606,-0.1658,-0.1732,-0.1679,-0.1561,-0.129,-0.1008,-0.0286,0.0291,0.0737,0.1278,0.149,0.1477,0.1548,0.1532,0.157,0.1128,0.1199,0.1531,0.1531,0.153,0.153,0.153,0.153,-0.1232,-0.1346,-0.1401,-0.1516,-0.1581,-0.1628,-0.1636,-0.1508,-0.1284,-0.0736,-0.0231,0.0158,0.0682,0.1452,0.1931,0.1964,0.2092,0.2075,0.2137,0.1795,0.174,0.1687,0.1769,0.2214,0.2215,0.2565,0.2568,0.2571]}],[{"header":{"parameterUnit":"m.s-1","parameterCategory":2,"la1":30.2991,"la2":30.254,"lo1":-89.0895,"lo2":-89.0444,"dy":0.0017,"dx":0.0017,"nx":28,"ny":28,"refTime":"2024-06-11T21:00:00:Z","depth":"2","parameterNumber":2,"parameterNumberName":"U-component_of_CURRENTS"},"data":[0,0,0,0,0,0,0,0,0,0,0,0,0,0,0,0,0,0,0,0,0,0,0,0,0,0,0,0,0,0,0,0,0,0,0,0,0,0,0,0,0,0,0,0,0,0,0,0,0,0,0,0,0,0,0,0,0,0,-0.2939,-0.2941,0,-0.3049,-0.305,-0.305,-0.3135,-0.3137,-0.3139,-0.3141,-0.3054,-0.305,-0.3046,0,0,0,0,0,0,0,0,0,0,0,0,0,-0.272,-0.2723,-0.2939,-0.2941,-0.2944,-0.3049,-0.305,-0.305,-0.3135,-0.3137,-0.314,-0.3142,-0.3055,-0.305,-0.3045,0,0,0,0,0,0,0,0,0,0,0,0,0,-0.2809,-0.2724,-0.2938,-0.3008,-0.3017,-0.3049,-0.305,-0.305,-0.3134,-0.3137,-0.314,-0.3143,-0.3057,-0.3051,-0.3045,-0.2946,0,0,-0.3025,-0.3023,0,0,0,0,0,0,0,0,-0.2804,-0.2815,-0.2995,-0.3004,-0.3013,-0.3093,-0.2942,-0.301,-0.3134,-0.3076,-0.3141,-0.3145,-0.3055,-0.3049,-0.3047,-0.2942,-0.2938,-0.3025,-0.3021,-0.3018,-0.3017,0,0,0,0,0,0,0,-0.2798,-0.2811,-0.2969,-0.2998,-0.3009,-0.3008,-0.3023,-0.2954,-0.3033,-0.3081,-0.3091,-0.3123,-0.3057,-0.3053,-0.3046,-0.2937,-0.3025,-0.302,-0.3016,-0.3013,-0.285,-0.2849,0,0,0,0,0,0,-0.2812,-0.2805,-0.2966,-0.2974,-0.2929,-0.3011,-0.3027,-0.3054,-0.3039,-0.3045,-0.312,-0.3127,-0.3063,-0.3053,-0.3043,-0.3039,-0.3018,-0.3013,-0.3009,-0.285,-0.285,-0.2849,0,0,0,0,0,0,-0.2806,-0.2824,-0.2962,-0.2902,-0.2922,-0.3013,-0.3041,-0.3055,-0.3072,-0.3073,-0.3073,-0.3129,-0.3065,-0.3052,-0.3014,-0.3032,-0.301,-0.3004,-0.2851,-0.285,-0.2849,-0.2956,0,0,0,0,0,0,-0.2799,-0.2821,-0.2824,-0.2904,-0.2926,-0.301,-0.304,-0.3055,-0.3093,-0.3102,-0.3079,-0.3074,-0.3066,-0.3024,-0.3008,-0.3023,-0.2999,-0.2852,-0.2851,-0.285,-0.2953,-0.2959,-0.2964,0,0,0,0,0,-0.2791,-0.2801,-0.2823,-0.2843,-0.2935,-0.3013,-0.3022,-0.3087,-0.3091,-0.3108,-0.3092,-0.3076,-0.3006,-0.3018,-0.2999,-0.3013,-0.2852,-0.2851,-0.285,-0.2951,-0.2958,-0.2964,0,0,0,0,0,0,-0.2728,-0.2814,-0.284,-0.2882,-0.2954,-0.3033,-0.3046,-0.308,-0.3078,-0.3084,-0.3057,-0.305,-0.3037,-0.2985,-0.2999,-0.2959,-0.2928,-0.2923,-0.3012,-0.3017,-0.3023,-0.2981,-0.2994,0,0,0,0,0,-0.271,-0.2721,-0.2828,-0.2854,-0.2889,-0.2955,-0.2985,-0.3048,-0.3073,-0.3078,-0.3068,-0.3036,-0.3007,-0.2985,-0.296,-0.2907,-0.2931,-0.2903,-0.2909,-0.2914,-0.2865,-0.2922,-0.2929,-0.2845,-0.2845,-0.2845,0,0,-0.2694,-0.2739,-0.275,-0.2837,-0.2882,-0.291,-0.2977,-0.3049,-0.3046,-0.3058,-0.3029,-0.3057,-0.2999,-0.2988,-0.2972,-0.295,-0.2972,-0.2912,-0.2918,-0.2864,-0.2921,-0.293,-0.2938,-0.2844,-0.2844,-0.2844,0,0,-0.2663,-0.2707,-0.2708,-0.2747,-0.2842,-0.2892,-0.2913,-0.3009,-0.3027,-0.302,-0.3043,-0.3057,-0.2998,-0.2988,-0.2958,-0.2944,-0.301,-0.2973,-0.2952,-0.3011,-0.3019,-0.3026,-0.3179,-0.3199,-0.2963,-0.2964,-0.2964,0,-0.2634,-0.2655,-0.2724,-0.2728,-0.2756,-0.2872,-0.2889,-0.2903,-0.2977,-0.298,-0.3016,-0.3035,-0.2971,-0.2973,-0.2968,-0.2952,-0.3056,-0.2948,-0.3024,-0.303,-0.3035,-0.3189,-0.3209,-0.2969,-0.2968,-0.2967,-0.2967,0,-0.2612,-0.2612,-0.2617,-0.2643,-0.2685,-0.2728,-0.2791,-0.2837,-0.2879,-0.2902,-0.2964,-0.2982,-0.2984,-0.3001,-0.2949,-0.2987,-0.3082,-0.3048,-0.3023,-0.3052,-0.3212,-0.3231,-0.2976,-0.2974,-0.2972,-0.2971,0,0,-0.2558,-0.2595,-0.2585,-0.2597,-0.2651,-0.2708,-0.2695,-0.2744,-0.2803,-0.2851,-0.2921,-0.2864,-0.2951,-0.292,-0.2974,-0.3012,-0.3136,-0.3043,-0.3044,-0.3222,-0.3395,-0.3032,-0.302,-0.3175,-0.3176,-0.3176,-0.3535,0,-0.2512,-0.2515,-0.2537,-0.2534,-0.2552,-0.2628,-0.2629,-0.2682,-0.2767,-0.2864,-0.289,-0.2976,-0.2899,-0.3017,-0.301,-0.314,-0.3175,-0.3047,-0.331,-0.3318,-0.3011,-0.302,-0.2715,-0.2966,-0.3554,-0.3557,-0.3559,0,-0.2452,-0.2475,-0.2468,-0.2529,-0.255,-0.2564,-0.269,-0.2717,-0.2816,-0.2901,-0.2988,-0.3068,-0.3123,-0.3086,-0.3242,-0.3207,-0.3238,-0.3331,-0.3347,-0.295,-0.298,-0.3003,-0.2979,-0.3591,-0.3589,-0.3586,-0.3584,0,-0.2394,-0.2413,-0.2419,-0.2421,-0.2508,-0.2535,-0.2601,-0.2715,-0.2792,-0.2969,-0.3104,-0.3198,-0.3316,-0.3377,-0.3429,-0.3393,-0.366,-0.3627,-0.3349,-0.3336,-0.3071,-0.3021,-0.3663,-0.3662,-0.3661,-0.366,-0.3659,0,-0.2317,-0.2316,-0.2401,-0.2401,-0.2457,-0.2527,-0.2647,-0.2739,-0.2925,-0.3012,-0.3124,-0.3259,-0.3388,-0.3524,-0.3544,-0.3496,-0.3723,-0.3318,-0.335,-0.3103,-0.3054,-0.3547,-0.3529,-0.3674,-0.3671,-0.3668,-0.3666,0,-0.2221,-0.2261,-0.2282,-0.2385,-0.2416,-0.2462,-0.2644,-0.2757,-0.2948,-0.3108,-0.3169,-0.3351,-0.3438,-0.3581,-0.3744,-0.3607,-0.3655,-0.3568,-0.3293,-0.3267,-0.3299,-0.3283,-0.3315,-0.3304,-0.3294,-0.3287,-0.328,0,-0.2166,-0.2161,-0.2258,-0.2287,-0.2323,-0.2428,-0.2508,-0.2718,-0.2838,-0.3111,-0.3159,-0.332,-0.3244,-0.3385,-0.3265,-0.3265,-0.3448,-0.2998,-0.2688,-0.3208,-0.3241,-0.3239,-0.3235,-0.2529,-0.2517,-0.2507,-0.2499,0,-0.2062,-0.2097,-0.214,-0.2193,-0.2258,-0.2343,-0.2469,-0.2559,-0.2785,-0.2874,-0.292,-0.2886,-0.2904,-0.2647,-0.2634,-0.2594,-0.2952,-0.2767,-0.3475,-0.2535,-0.2456,-0.2491,-0.2517,-0.241,-0.2419,-0.2426,-0.243,-0.2434,-0.1982,-0.1988,-0.2031,-0.2071,-0.2147,-0.2169,-0.2171,-0.2288,-0.2323,-0.2361,-0.2476,-0.2311,-0.2356,-0.1971,-0.1962,-0.2,-0.2137,-0.211,-0.2149,-0.2198,-0.1911,-0.1803,-0.1597,-0.1601,-0.1604,-0.1607,-0.161,0,-0.1843,-0.1861,-0.1902,-0.192,-0.1919,-0.2,-0.2069,-0.2013,-0.1899,-0.1911,-0.1793,-0.151,-0.1283,-0.1436,-0.1244,-0.119,-0.1299,-0.1228,-0.1388,-0.1469,-0.1543,-0.1233,-0.0737,-0.0736,-0.0734,-0.0733,0,0,-0.1764,-0.1732,-0.1747,-0.1651,-0.1664,-0.1555,-0.1521,-0.1428,-0.1381,-0.1166,-0.1044,-0.1034,-0.1174,-0.0875,-0.0854,-0.0763,-0.1123,-0.0729,-0.1402,-0.1657,-0.173,-0.1992,-0.1591,0,0,0,0,0]},{"header":{"parameterUnit":"m.s-1","parameterCategory":2,"la1":30.2991,"la2":30.254,"lo1":-89.0895,"lo2":-89.0444,"dy":0.0017,"dx":0.0017,"nx":28,"ny":28,"refTime":"2024-06-11T21:00:00:Z","depth":"2","parameterNumber":3,"parameterNumberName":"V-component_of_CURRENTS"},"data":[0,0,0,0,0,0,0,0,0,0,0,0,0,0,0,0,0,0,0,0,0,0,0,0,0,0,0,0,0,0,0,0,0,0,0,0,0,0,0,0,0,0,0,0,0,0,0,0,0,0,0,0,0,0,0,0,0,0,-0.0273,-0.0271,0,-0.0107,-0.0106,-0.0104,-0.0096,-0.0098,-0.0099,-0.0101,0.0043,0.0048,0.0054,0,0,0,0,0,0,0,0,0,0,0,0,0,-0.0388,-0.0387,-0.0273,-0.0271,-0.0268,-0.0108,-0.0105,-0.0103,-0.0096,-0.0098,-0.01,-0.0102,0.0041,0.0048,0.0054,0,0,0,0,0,0,0,0,0,0,0,0,0,-0.0294,-0.0387,-0.0273,-0.0243,-0.0239,-0.0108,-0.0105,-0.0103,-0.0095,-0.0098,-0.01,-0.0103,0.0039,0.0047,0.0055,0.0158,0,0,0.008,0.0084,0,0,0,0,0,0,0,0,-0.03,-0.0291,-0.025,-0.0245,-0.024,-0.0123,-0.0093,-0.0016,-0.0094,-0.0152,-0.0101,-0.0104,-0.0011,0.0001,0.0035,0.0165,0.0171,0.0081,0.0086,0.0089,0.0092,0,0,0,0,0,0,0,-0.0307,-0.0296,-0.0209,-0.0247,-0.0241,-0.0172,-0.0163,-0.0078,-0.0071,-0.0147,-0.0146,-0.0123,-0.0009,0.0027,0.0039,0.0173,0.0081,0.0088,0.0093,0.0096,0.0346,0.0347,0,0,0,0,0,0,-0.033,-0.0303,-0.0215,-0.0204,-0.0275,-0.0168,-0.0159,-0.016,-0.0071,-0.006,-0.0121,-0.0123,0.0015,0.0029,0.0044,0.0141,0.0089,0.0097,0.0102,0.0344,0.0346,0.0348,0,0,0,0,0,0,-0.0334,-0.0325,-0.0221,-0.0247,-0.0229,-0.0165,-0.0165,-0.0155,-0.0131,-0.0051,-0.0041,-0.0109,0.0013,0.0032,0.0103,0.0147,0.0101,0.0108,0.0342,0.0345,0.0347,0.0354,0,0,0,0,0,0,-0.0338,-0.0327,-0.0342,-0.0249,-0.0228,-0.0166,-0.0161,-0.015,-0.0111,-0.0113,-0.0035,-0.0025,0.0013,0.0091,0.0111,0.0157,0.0114,0.034,0.0343,0.0346,0.0352,0.0357,0.0361,0,0,0,0,0,-0.0343,-0.0354,-0.0344,-0.0333,-0.025,-0.0165,-0.0148,-0.0111,-0.0108,-0.0099,-0.0047,-0.0028,0.0125,0.0099,0.0123,0.0172,0.0338,0.0342,0.0346,0.035,0.0356,0.0361,0,0,0,0,0,0,-0.0409,-0.035,-0.0339,-0.0333,-0.0264,-0.0164,-0.0149,-0.0109,-0.0055,-0.0061,0.0002,0.0019,0.0087,0.0135,0.0105,0.0252,0.0234,0.0243,0.0229,0.0235,0.024,0.0224,0.0121,0,0,0,0,0,-0.0428,-0.0428,-0.0346,-0.0339,-0.0313,-0.0228,-0.019,-0.0154,-0.0086,-0.0066,-0.0016,0.0052,0.0131,0.0181,0.0235,0.0339,0.0337,0.0384,0.0388,0.0392,0.0395,0.0441,0.045,0.036,0.036,0.036,0,0,-0.0446,-0.0416,-0.0414,-0.0353,-0.0301,-0.025,-0.0214,-0.0157,-0.0112,-0.0054,-0.0003,0.0058,0.0154,0.0242,0.0282,0.0289,0.0406,0.0397,0.0399,0.0401,0.0446,0.0455,0.0462,0.0363,0.0363,0.0362,0,0,-0.0465,-0.046,-0.0459,-0.0401,-0.0325,-0.0271,-0.0258,-0.0165,-0.0136,-0.0047,-0.0007,0.009,0.0197,0.0286,0.0348,0.0425,0.0409,0.043,0.0473,0.0518,0.0525,0.0532,0.049,0.0492,0.0457,0.0457,0.0457,0,-0.049,-0.0478,-0.0438,-0.0403,-0.0364,-0.0286,-0.0252,-0.0187,-0.0085,-0.0048,-0.0044,0.016,0.0232,0.039,0.0406,0.0441,0.0412,0.0444,0.0522,0.0529,0.0535,0.0491,0.0494,0.0458,0.0458,0.0458,0.0458,0,-0.0491,-0.0472,-0.046,-0.0408,-0.0363,-0.0316,-0.0227,-0.0193,-0.0142,-0.0056,0.0075,0.0204,0.0323,0.038,0.0423,0.0529,0.047,0.0498,0.05,0.0544,0.0495,0.0498,0.0459,0.0459,0.0459,0.0459,0,0,-0.0556,-0.0483,-0.0476,-0.0463,-0.0363,-0.0332,-0.0269,-0.018,-0.0152,-0.0002,0.0079,0.0278,0.0347,0.0422,0.0512,0.059,0.0607,0.0556,0.0558,0.0498,0.0617,0.0706,0.0717,0.0627,0.0629,0.063,0.0544,0,-0.0567,-0.054,-0.0485,-0.0448,-0.0429,-0.0351,-0.0306,-0.0214,-0.0137,-0.0049,0.0164,0.026,0.0369,0.0414,0.0528,0.0569,0.0621,0.0622,0.0597,0.0595,0.066,0.0729,0.0664,0.0595,0.0547,0.0547,0.0547,0,-0.0576,-0.0566,-0.0547,-0.0501,-0.0487,-0.0452,-0.041,-0.0351,-0.0193,-0.0133,0.0052,0.0176,0.0361,0.0418,0.0576,0.0551,0.0578,0.0626,0.0624,0.0714,0.0696,0.0557,0.0602,0.0552,0.0552,0.0551,0.0551,0,-0.0666,-0.0605,-0.0614,-0.0585,-0.0516,-0.0511,-0.0481,-0.0375,-0.035,-0.0195,-0.0164,0.0093,0.018,0.0317,0.046,0.0475,0.0581,0.0613,0.0726,0.0727,0.0678,0.0675,0.0701,0.0701,0.0701,0.0702,0.0702,0,-0.0696,-0.0698,-0.0662,-0.0661,-0.0684,-0.0604,-0.0615,-0.0557,-0.0462,-0.0418,-0.0215,-0.0125,0.0147,0.0274,0.0405,0.0582,0.0537,0.0742,0.0744,0.0676,0.0674,0.0656,0.0652,0.0698,0.0699,0.07,0.07,0,-0.0773,-0.0738,-0.0756,-0.0728,-0.0722,-0.0747,-0.0726,-0.0733,-0.0653,-0.0597,-0.056,-0.0327,-0.0133,0.012,0.0315,0.0482,0.0643,0.0699,0.0573,0.0571,0.0751,0.0748,0.0818,0.0822,0.0824,0.0827,0.0828,0,-0.0807,-0.0823,-0.0839,-0.087,-0.0858,-0.0882,-0.09,-0.0833,-0.0826,-0.0707,-0.0672,-0.0472,-0.0246,0.0098,0.0388,0.0645,0.0673,0.0713,0.0815,0.0784,0.0778,0.0771,0.0765,0.0689,0.069,0.069,0.0691,0,-0.0885,-0.0899,-0.0927,-0.0994,-0.1028,-0.1058,-0.1061,-0.1077,-0.0989,-0.0901,-0.073,-0.0544,-0.019,0.0168,0.0498,0.0638,0.0696,0.0739,0.0724,0.0722,0.0672,0.0663,0.0659,0.0695,0.0695,0.0694,0.0694,0.0694,-0.0957,-0.1011,-0.1058,-0.1114,-0.1159,-0.1189,-0.1198,-0.1143,-0.107,-0.0863,-0.0732,-0.0389,-0.0146,0.0437,0.0605,0.077,0.0805,0.0853,0.0846,0.0839,0.0893,0.0858,0.0917,0.0918,0.0918,0.0919,0.0919,0,-0.1036,-0.1089,-0.1169,-0.1227,-0.1283,-0.127,-0.1268,-0.1212,-0.1062,-0.0799,-0.0534,-0.0186,0.0178,0.043,0.0705,0.087,0.0807,0.0885,0.0766,0.0761,0.0757,0.0803,0.0804,0.0804,0.0805,0.0805,0,0,-0.108,-0.1175,-0.1214,-0.1308,-0.134,-0.1355,-0.1333,-0.117,-0.0961,-0.0632,-0.0328,0.0003,0.0264,0.045,0.0598,0.0722,0.0698,0.0715,0.0787,0.0621,0.0615,0.0716,0.0781,0,0,0,0,0]}],[{"header":{"parameterUnit":"m.s-1","parameterCategory":2,"la1":30.2991,"la2":30.254,"lo1":-89.0895,"lo2":-89.0444,"dy":0.0017,"dx":0.0017,"nx":28,"ny":28,"refTime":"2024-06-11T21:00:00:Z","depth":"4","parameterNumber":2,"parameterNumberName":"U-component_of_CURRENTS"},"data":[0,0,0,0,0,0,0,0,0,0,0,0,0,0,0,0,0,0,0,0,0,0,0,0,0,0,0,0,0,0,0,0,0,0,0,0,0,0,0,0,0,0,0,0,0,0,0,0,0,0,0,0,0,0,0,0,0,0,-0.0996,-0.0994,0,-0.0866,-0.0865,-0.0864,-0.082,-0.082,-0.082,-0.082,-0.0916,-0.0919,-0.0922,0,0,0,0,0,0,0,0,0,0,0,0,0,-0.1187,-0.1185,-0.0997,-0.0994,-0.0992,-0.0866,-0.0865,-0.0864,-0.082,-0.082,-0.082,-0.082,-0.0915,-0.0918,-0.0922,0,0,0,0,0,0,0,0,0,0,0,0,0,-0.1094,-0.1184,-0.0997,-0.0948,-0.0942,-0.0866,-0.0865,-0.0864,-0.082,-0.082,-0.082,-0.0819,-0.0914,-0.0918,-0.0922,-0.0956,0,0,-0.0935,-0.0937,0,0,0,0,0,0,0,0,-0.1099,-0.1088,-0.0958,-0.0952,-0.0944,-0.0852,-0.0967,-0.0903,-0.0821,-0.0876,-0.082,-0.0819,-0.091,-0.0915,-0.09,-0.096,-0.0964,-0.0935,-0.0938,-0.094,-0.0941,0,0,0,0,0,0,0,-0.1106,-0.1093,-0.0954,-0.0955,-0.0947,-0.0925,-0.0913,-0.0954,-0.0908,-0.0871,-0.0865,-0.0837,-0.0909,-0.0896,-0.0902,-0.0966,-0.0935,-0.0939,-0.0942,-0.0943,-0.1038,-0.1038,0,0,0,0,0,0,-0.1106,-0.1099,-0.0958,-0.0949,-0.1013,-0.0922,-0.0908,-0.0889,-0.0902,-0.0899,-0.0838,-0.0835,-0.0889,-0.0898,-0.0906,-0.0979,-0.094,-0.0944,-0.0946,-0.1038,-0.1038,-0.1038,0,0,0,0,0,0,-0.1111,-0.1095,-0.0963,-0.1014,-0.0994,-0.0918,-0.0897,-0.0886,-0.0894,-0.0872,-0.0876,-0.0857,-0.0889,-0.09,-0.0971,-0.0982,-0.0946,-0.0949,-0.1038,-0.1038,-0.1038,-0.1107,0,0,0,0,0,0,-0.1117,-0.1098,-0.1099,-0.1014,-0.0991,-0.0923,-0.0896,-0.0884,-0.0871,-0.0868,-0.0891,-0.0897,-0.0889,-0.0965,-0.0975,-0.0987,-0.0953,-0.1038,-0.1038,-0.1038,-0.1105,-0.1109,-0.1113,0,0,0,0,0,-0.1124,-0.1121,-0.11,-0.1083,-0.0991,-0.0922,-0.091,-0.086,-0.0873,-0.0871,-0.0906,-0.0898,-0.0969,-0.097,-0.0982,-0.0995,-0.1038,-0.1038,-0.1038,-0.1103,-0.1108,-0.1113,0,0,0,0,0,0,-0.12,-0.1113,-0.1089,-0.1059,-0.0997,-0.0911,-0.0903,-0.0884,-0.0906,-0.092,-0.0932,-0.0941,-0.0989,-0.099,-0.099,-0.1014,-0.0989,-0.0991,-0.1034,-0.1039,-0.1044,-0.1074,-0.0956,0,0,0,0,0,-0.1217,-0.1208,-0.1105,-0.1092,-0.1058,-0.0996,-0.0971,-0.0931,-0.0921,-0.0929,-0.0941,-0.0962,-0.0992,-0.102,-0.1025,-0.1079,-0.1085,-0.108,-0.1084,-0.1088,-0.1116,-0.1115,-0.1123,-0.1038,-0.1038,-0.1038,0,0,-0.1242,-0.1198,-0.1189,-0.111,-0.1064,-0.1035,-0.0983,-0.094,-0.0951,-0.0944,-0.0991,-0.0985,-0.1007,-0.1038,-0.1058,-0.1052,-0.1118,-0.1088,-0.1092,-0.1118,-0.1116,-0.1124,-0.1132,-0.1038,-0.1038,-0.1038,0,0,-0.1274,-0.1247,-0.1233,-0.1193,-0.1114,-0.1077,-0.1076,-0.0996,-0.0996,-0.1023,-0.1018,-0.1036,-0.1074,-0.1081,-0.1101,-0.1143,-0.1134,-0.1122,-0.1189,-0.1187,-0.1195,-0.1202,-0.1242,-0.1252,-0.1133,-0.1133,-0.1133,0,-0.1309,-0.128,-0.122,-0.1196,-0.1187,-0.1112,-0.1106,-0.1091,-0.1054,-0.1077,-0.1046,-0.1085,-0.1096,-0.1165,-0.1165,-0.1158,-0.1165,-0.1175,-0.1196,-0.1203,-0.1209,-0.1248,-0.1258,-0.1137,-0.1136,-0.1136,-0.1136,0,-0.1302,-0.1303,-0.1297,-0.1262,-0.1247,-0.1228,-0.1184,-0.1186,-0.1182,-0.116,-0.1194,-0.1182,-0.1205,-0.1192,-0.1209,-0.1251,-0.1247,-0.1197,-0.1192,-0.1223,-0.1261,-0.127,-0.1141,-0.114,-0.1139,-0.1138,0,0,-0.1328,-0.1299,-0.1303,-0.1314,-0.1287,-0.1266,-0.1311,-0.1312,-0.1346,-0.1302,-0.1347,-0.1366,-0.1326,-0.1344,-0.1325,-0.1331,-0.1383,-0.1296,-0.1294,-0.1353,-0.1415,-0.1305,-0.1304,-0.1331,-0.1332,-0.1334,-0.1434,0,-0.1347,-0.1342,-0.1334,-0.1372,-0.1367,-0.1364,-0.1417,-0.1421,-0.1419,-0.1434,-0.1417,-0.1434,-0.1395,-0.1393,-0.1397,-0.1371,-0.1407,-0.1364,-0.1362,-0.1364,-0.1274,-0.131,-0.1338,-0.1441,-0.1443,-0.1445,-0.1446,0,-0.133,-0.1344,-0.1376,-0.1436,-0.1436,-0.1465,-0.1535,-0.1561,-0.1583,-0.1576,-0.1578,-0.1545,-0.1568,-0.1499,-0.1513,-0.1484,-0.148,-0.1457,-0.1458,-0.1341,-0.1269,-0.1395,-0.1462,-0.1461,-0.146,-0.1459,-0.1458,0,-0.1351,-0.138,-0.1428,-0.144,-0.1483,-0.1533,-0.1567,-0.1606,-0.1639,-0.1656,-0.1662,-0.1661,-0.1653,-0.163,-0.1573,-0.1555,-0.1565,-0.1526,-0.1445,-0.1439,-0.1481,-0.1472,-0.1567,-0.1567,-0.1567,-0.1567,-0.1566,0,-0.1365,-0.1407,-0.1442,-0.1463,-0.1531,-0.1565,-0.1641,-0.166,-0.1707,-0.173,-0.1728,-0.1725,-0.168,-0.1661,-0.1617,-0.1548,-0.1603,-0.1482,-0.1452,-0.1509,-0.1502,-0.149,-0.1479,-0.157,-0.157,-0.1569,-0.1568,0,-0.1369,-0.1395,-0.1443,-0.1509,-0.1532,-0.1576,-0.166,-0.1701,-0.1754,-0.178,-0.1789,-0.1795,-0.175,-0.1703,-0.1662,-0.1599,-0.1541,-0.1516,-0.1618,-0.1588,-0.1427,-0.1419,-0.1463,-0.146,-0.1457,-0.1455,-0.1453,0,-0.1358,-0.1384,-0.1453,-0.1483,-0.1517,-0.1588,-0.1632,-0.1698,-0.1728,-0.1796,-0.1793,-0.1796,-0.1769,-0.1625,-0.1599,-0.1526,-0.1494,-0.1505,-0.1447,-0.1448,-0.1415,-0.1411,-0.1407,-0.1449,-0.1448,-0.1448,-0.1447,0,-0.1344,-0.138,-0.1422,-0.1461,-0.1509,-0.1559,-0.1619,-0.1628,-0.1696,-0.178,-0.1722,-0.1675,-0.1633,-0.1549,-0.1496,-0.1442,-0.1504,-0.1476,-0.1482,-0.1428,-0.1431,-0.14,-0.1399,-0.1438,-0.1439,-0.144,-0.144,0,-0.1326,-0.1345,-0.1383,-0.1411,-0.148,-0.148,-0.1524,-0.1536,-0.1561,-0.1625,-0.1607,-0.1584,-0.1611,-0.1511,-0.1458,-0.1384,-0.1369,-0.1339,-0.1352,-0.1362,-0.1271,-0.1256,-0.1203,0,0,0,0,0,-0.1268,-0.1273,-0.1317,-0.1326,-0.1404,-0.1406,-0.1493,-0.1538,-0.1605,-0.152,-0.1549,-0.1483,-0.1396,-0.1403,-0.1297,-0.1433,-0.1386,-0.1314,-0.1362,-0.1386,-0.1397,-0.1291,0,0,0,0,0,0,-0.1222,-0.1264,-0.1274,-0.1248,-0.1239,-0.1275,-0.1307,-0.1355,-0.1311,-0.1389,-0.1328,-0.141,-0.1326,-0.1398,-0.1261,-0.1265,-0.1274,-0.1323,-0.132,-0.138,-0.1389,-0.1398,-0.1294,0,0,0,0,0]},{"header":{"parameterUnit":"m.s-1","parameterCategory":2,"la1":30.2991,"la2":30.254,"lo1":-89.0895,"lo2":-89.0444,"dy":0.0017,"dx":0.0017,"nx":28,"ny":28,"refTime":"2024-06-11T21:00:00:Z","depth":"4","parameterNumber":3,"parameterNumberName":"V-component_of_CURRENTS"},"data":[0,0,0,0,0,0,0,0,0,0,0,0,0,0,0,0,0,0,0,0,0,0,0,0,0,0,0,0,0,0,0,0,0,0,0,0,0,0,0,0,0,0,0,0,0,0,0,0,0,0,0,0,0,0,0,0,0,0,-0.0156,-0.0156,0,-0.0174,-0.0175,-0.0176,-0.0189,-0.0188,-0.0188,-0.0187,-0.0114,-0.0112,-0.0111,0,0,0,0,0,0,0,0,0,0,0,0,0,-0.0185,-0.0185,-0.0156,-0.0156,-0.0156,-0.0174,-0.0175,-0.0176,-0.0189,-0.0188,-0.0187,-0.0187,-0.0114,-0.0112,-0.0111,0,0,0,0,0,0,0,0,0,0,0,0,0,-0.0192,-0.0185,-0.0157,-0.0159,-0.0158,-0.0174,-0.0175,-0.0176,-0.0189,-0.0188,-0.0187,-0.0186,-0.0115,-0.0113,-0.011,-0.0115,0,0,-0.0104,-0.0103,0,0,0,0,0,0,0,0,-0.0191,-0.0192,-0.0159,-0.0158,-0.0158,-0.0172,-0.0158,-0.0149,-0.0189,-0.0185,-0.0187,-0.0186,-0.012,-0.0118,-0.0135,-0.0112,-0.0108,-0.0104,-0.0103,-0.0102,-0.0101,0,0,0,0,0,0,0,-0.0191,-0.0191,-0.0171,-0.0158,-0.0158,-0.0176,-0.0176,-0.0158,-0.0162,-0.0186,-0.0185,-0.0175,-0.012,-0.0137,-0.0133,-0.0107,-0.0104,-0.0102,-0.0101,-0.01,-0.0079,-0.008,0,0,0,0,0,0,-0.0172,-0.019,-0.017,-0.0171,-0.0164,-0.0175,-0.0176,-0.0174,-0.0164,-0.016,-0.0176,-0.0175,-0.0141,-0.0135,-0.013,-0.0077,-0.0102,-0.01,-0.0098,-0.0079,-0.008,-0.008,0,0,0,0,0,0,-0.0172,-0.017,-0.017,-0.0175,-0.0175,-0.0174,-0.0173,-0.0175,-0.0176,-0.0156,-0.0152,-0.0171,-0.014,-0.0133,-0.0093,-0.0076,-0.0099,-0.0097,-0.0078,-0.0079,-0.008,-0.0008,0,0,0,0,0,0,-0.0173,-0.0171,-0.0183,-0.0174,-0.0173,-0.0171,-0.0173,-0.0176,-0.0168,-0.0168,-0.0151,-0.0144,-0.0139,-0.0096,-0.009,-0.0074,-0.0095,-0.0077,-0.0078,-0.008,-0.0009,-0.0006,-0.0003,0,0,0,0,0,-0.0175,-0.0183,-0.0184,-0.0182,-0.0184,-0.017,-0.0173,-0.0175,-0.0168,-0.0173,-0.0148,-0.0144,-0.0102,-0.0093,-0.0087,-0.007,-0.0076,-0.0078,-0.0079,-0.001,-0.0007,-0.0003,0,0,0,0,0,0,-0.0203,-0.0184,-0.0185,-0.0189,-0.0176,-0.0169,-0.0179,-0.0167,-0.0158,-0.0153,-0.0132,-0.0124,-0.0095,-0.0098,-0.0089,-0.0077,-0.0097,-0.0098,-0.0047,-0.0044,-0.0041,-0.0017,-0.0093,0,0,0,0,0,-0.0213,-0.022,-0.0194,-0.0202,-0.0193,-0.0184,-0.0183,-0.0175,-0.0155,-0.0152,-0.0141,-0.0129,-0.0104,-0.0082,-0.0083,-0.0052,-0.0019,-0.0049,-0.0047,-0.0044,-0.0025,0.0034,0.0047,-0.0086,-0.0086,-0.0086,0,0,-0.0226,-0.0218,-0.0223,-0.0209,-0.0206,-0.0189,-0.0184,-0.0173,-0.015,-0.0142,-0.0125,-0.0119,-0.0099,-0.0075,-0.0063,-0.0064,0.0012,-0.0046,-0.0042,-0.0026,0.0034,0.0048,0.006,-0.0087,-0.0087,-0.0086,0,0,-0.0243,-0.0246,-0.0249,-0.0233,-0.0213,-0.0201,-0.0188,-0.0175,-0.0162,-0.0136,-0.0125,-0.0087,-0.0084,-0.0044,-0.0023,-0.0002,0.0016,-0.0035,0.0022,0.008,0.0093,0.0105,0.0185,0.0203,-0.0022,-0.0022,-0.0022,0,-0.0262,-0.0257,-0.0248,-0.0234,-0.022,-0.0197,-0.018,-0.0159,-0.0136,-0.0113,-0.0126,-0.0085,-0.0057,0.0019,0.0025,0.0014,0.0042,0.002,0.009,0.0102,0.0113,0.0192,0.0211,-0.0018,-0.0019,-0.0019,-0.0019,0,-0.0268,-0.0261,-0.0258,-0.0234,-0.0219,-0.0203,-0.0157,-0.0145,-0.0129,-0.0101,-0.0051,-0.0018,0.0013,0.0021,0.0044,0.0124,0.0119,0.0085,0.0098,0.0132,0.0211,0.0231,-0.0014,-0.0015,-0.0016,-0.0017,0,0,-0.0314,-0.0272,-0.0272,-0.0262,-0.0214,-0.0206,-0.0155,-0.0105,-0.0075,-0.0043,0.0003,0.0074,0.0084,0.0108,0.0131,0.0201,0.0326,0.0181,0.0182,0.0289,0.0469,0.0357,0.0367,0.0297,0.03,0.0302,0.0503,0,-0.0323,-0.0307,-0.0274,-0.0254,-0.0241,-0.0194,-0.0159,-0.0106,-0.0065,-0.0022,0.0062,0.0096,0.0122,0.0131,0.0216,0.0272,0.0374,0.0276,0.0393,0.0398,0.0318,0.0384,0.0312,0.0517,0.0522,0.0525,0.0527,0,-0.0335,-0.0326,-0.0313,-0.0271,-0.0262,-0.0246,-0.0195,-0.0157,-0.006,-0.0029,0.0052,0.0097,0.0224,0.0213,0.0402,0.0328,0.042,0.0479,0.0487,0.0371,0.032,0.0465,0.0562,0.0559,0.0556,0.0554,0.0552,0,-0.039,-0.0348,-0.035,-0.0334,-0.0286,-0.0273,-0.0247,-0.0168,-0.0139,-0.0035,-0.0008,0.0134,0.0193,0.0322,0.0454,0.043,0.0644,0.0621,0.0633,0.0627,0.064,0.0625,0.0787,0.0787,0.0787,0.0786,0.0785,0,-0.0411,-0.0413,-0.0383,-0.0387,-0.0391,-0.0334,-0.0325,-0.027,-0.0197,-0.0149,-0.0026,0.0041,0.0218,0.0354,0.0475,0.0604,0.0671,0.0671,0.0673,0.0664,0.0649,0.0656,0.0638,0.0794,0.0792,0.079,0.0789,0,-0.0472,-0.0447,-0.0457,-0.0428,-0.0421,-0.0433,-0.0396,-0.0387,-0.0301,-0.0233,-0.0201,-0.0011,0.0156,0.0329,0.055,0.0613,0.0749,0.0789,0.0795,0.0788,0.0706,0.0689,0.084,0.0838,0.0836,0.0834,0.0833,0,-0.0499,-0.0514,-0.0517,-0.0539,-0.0533,-0.0537,-0.0541,-0.046,-0.0429,-0.0262,-0.0225,-0.0041,0.009,0.0345,0.0506,0.0728,0.0741,0.083,0.0764,0.0726,0.0713,0.0699,0.0685,0.083,0.0829,0.0829,0.0828,0,-0.0564,-0.0579,-0.0596,-0.0642,-0.0661,-0.0665,-0.0642,-0.0622,-0.0504,-0.0424,-0.0234,-0.0071,0.0118,0.0321,0.0481,0.0638,0.0768,0.081,0.0816,0.0755,0.0715,0.0701,0.069,0.0822,0.0823,0.0823,0.0824,0,-0.0624,-0.0665,-0.0701,-0.0733,-0.077,-0.077,-0.0742,-0.0661,-0.0602,-0.0388,-0.0323,-0.0086,0.0081,0.0277,0.0427,0.0549,0.0577,0.0614,0.0631,0.064,0.0482,0.0397,0.0434,0,0,0,0,0,-0.0668,-0.0722,-0.0782,-0.0814,-0.0856,-0.0856,-0.0801,-0.0751,-0.0616,-0.0499,-0.0402,-0.0219,0.0037,0.0172,0.0274,0.0348,0.056,0.0466,0.06,0.0785,0.0793,0.0626,0,0,0,0,0,0,-0.07,-0.0772,-0.0802,-0.0878,-0.0911,-0.0934,-0.0894,-0.0796,-0.0699,-0.0542,-0.0399,-0.0246,-0.0003,-0.0044,0.0254,0.0298,0.0387,0.0612,0.0613,0.0781,0.0788,0.0794,0.0625,0,0,0,0,0]}]]